Regional Weather Roundup
Issued by NWS

Home | Current Version | Previous Version | Graphics & Text | Print | Product List | Glossary On
Versions: 1 2 3 4 5 6 7 8 9 10 11 12 13 14 15 16 17 18 19 20 21 22 23 24 25 26 27 28 29 30 31 32 33 34 35 36 37 38 39 40 41 42 43 44 45 46 47 48 49 50
000
ASUS43 KLMK 160610
RWRKY
KENTUCKY REGIONAL WEATHER ROUNDUP
NATIONAL WEATHER SERVICE LOUISVILLE KY
100 AM EST TUE JAN 16 2018

NOTE "FAIR" INDICATES FEW OR NO CLOUDS BELOW 12,000 FEET
WITH NO SIGNIFICANT WEATHER AND/OR OBSTRUCTIONS TO VISIBILITY.

KYZ001>023-026-027-061>063-070>075-160700-
WESTERN AND SOUTH CENTRAL KENTUCKY

CITY           SKY/WX    TMP DP  RH WIND       PRES   REMARKS
PADUCAH        CLOUDY    15   2  56 N13       30.56R WCI   1
HENDERSON      MOCLDY    12   3  67 NW15      30.55R WCI  -4
OWENSBORO      FLURRIES  16   9  73 N13       30.52R WCI   2
HOPKINSVILLE   LGT SNOW  17  13  83 N10G21    30.49R BLWGSNOWWCI   5
BOWLING GREEN  LGT SNOW  19  16  88 NW6       30.49R FOG     WCI  11
GLASGOW        LGT SNOW  21  18  88 NW6       30.45R WCI  14
$$

KYZ024-025-028>034-038-045-046-053-160700-
NORTH CENTRAL KENTUCKY

CITY           SKY/WX    TMP DP  RH WIND       PRES   REMARKS
LOUISVILLE/SDF LGT SNOW  16  11  80 W10       30.46R WCI   4
LOUISVILLE/LOU LGT SNOW  16  12  84 NW5       30.47R FOG     WCI   9
FORT KNOX      LGT SNOW  14  10  84 NW6       30.43R FOG     WCI   5
$$

KYZ035>037-039>044-047>052-055>060-089>105-160700-
NORTHEAST KENTUCKY

CITY           SKY/WX    TMP DP  RH WIND       PRES   REMARKS
LEXINGTON      LGT SNOW  21  15  78 NW12G21   30.39R WCI   9
COVINGTON      FLURRIES  14   7  73 NW13      30.38S WCI   0
FRANKFORT      LGT SNOW  20  14  77 W5        30.40R WCI  13
$$

KYZ054-064>069-076>088-106>120-160700-
SOUTHEAST KENTUCKY

CITY           SKY/WX    TMP DP  RH WIND       PRES   REMARKS
JACKSON        CLOUDY    31  25  78 NW7       30.32S WCI  24
LONDON         CLOUDY    31  26  82 W5        30.34S WCI  26
SOMERSET       CLOUDY    30  27  86 W7        30.39R WCI  23
MIDDLESBORO    FAIR      31  26  81 CALM      30.33S
MONTICELLO     CLOUDY    30  28  92 W7        30.40S WCI  23
$$





USA.gov is the U.S. government's official web portal to all federal, state and local government web resources and services.